GPS BIIRM-5 (PRN 29)

Last updated on Thu Aug 20 2026 00:03:18 GMT+0000 (Coordinated Universal Time)

1 32384U 07062A 26230.86780935 -.00000009 00000+0 00000+0 0 9992 2 32384 54.9844 271.6282 0036112 169.2926 189.1368 2.00563637136763
UTC large
Height (km)
Speed (km/s)
/
Latitude / Longitude
Inclination (degrees)
Orbital Period (minutes)
Azimuth
Elevation
Range (km)
Doppler Factor

Next 0 passes for location: London (51.5072 / 0.1276)

No passes found over London.
GPS BIIRM-5 (PRN 29)